{"data":{"norad_id":39020,"intl_designator":"2012-069A","name":"EUTELSAT 70B","alt_names":[],"object_type":"PAYLOAD","status":"ACTIVE","operator":null,"country":"EUTE","launch_date":"2012-12-03","launch_site_code":"SEAL","launch_vehicle":null,"mission":null,"orbit_class":"UNKNOWN","rcs_meters":22.5893,"size_class":null,"mass_kg":null,"dimensions":null,"purposes":["comms"],"wikipedia_slug":null,"has_3d_model":false,"image_url":null,"decayed_at":null,"tle_current":{"epoch":"2026-05-25T04:04:45.331104Z","epoch_age_seconds":63956,"freshness":"FRESH","line1":"1 39020U 12069A   26145.16996911 -.00000046  00000+0  00000+0 0  9991","line2":"2 39020   0.0675  13.5765 0004408  42.1265 318.7489  1.00271634 49273","mean_motion":1.00271634,"eccentricity":0.0004408,"inclination_deg":0.0675,"raan_deg":13.5765,"arg_perigee_deg":42.1265,"mean_anomaly_deg":318.7489,"bstar":0,"rev_number":4927,"period_min":1436.0990666613,"perigee_km":35768.051059517,"apogee_km":35805.223524533,"semimajor_km":42164.774292025,"source":"CELESTRAK","updated_at":"2026-05-25T13:38:13.939681Z"}}}